Location: Ferma
(41.9500°N, 44.5167°E)
Time: 04:18:35
(UTC+00:00)

NOSS 2-3 (D) - Pass Details

Date: 01 June 2022
Orbit: 536 x 1674 km, 63.3° (Epoch: 02 June)

Event Time Altitude Azimuth Distance (km) Brightness Sun altitude
Rises 18:02:22 0° 329° (NNW) 3,399 9.1 -13.9°
Reaches altitude 10° 18:04:44 10° 337° (NNW) 2,609 8.0 -14.2°
Maximum altitude 18:10:36 42° 47° (NE) 1,545 5.6 -14.9°
Enters shadow 18:16:38 16° 111° (ESE) 2,892 6.4 -15.6°
